Time,TemperatureF,DewpointF,PressureIn,WindDirection,WindDirectionDegrees,WindSpeedMPH,WindSpeedGustMPH,Humidity,HourlyPrecipIn,Conditions,Clouds,dailyrainin,SoftwareType,DateUTC
2013-08-20 00:01:00,73.5,67.7,29.74,SSW,202,6.0,8.0,82,0.00,,,0.00,VWS V14.01,2013-08-20 05:01:00,
2013-08-20 00:06:00,73.5,68.7,29.74,SSW,202,5.0,7.0,85,0.00,,,0.00,VWS V14.01,2013-08-20 05:06:00,
2013-08-20 00:11:00,73.3,68.2,29.74,SSW,200,8.0,8.0,84,0.00,,,0.00,VWS V14.01,2013-08-20 05:11:00,
2013-08-20 00:16:00,73.2,68.1,29.74,SSW,200,8.0,8.0,84,0.00,,,0.00,VWS V14.01,2013-08-20 05:16:00,
2013-08-20 00:21:00,73.2,68.4,29.74,SSW,200,6.0,7.0,85,0.00,,,0.00,VWS V14.01,2013-08-20 05:21:00,
2013-08-20 00:26:00,73.0,68.6,29.74,SSW,202,7.0,7.0,86,0.00,,,0.00,VWS V14.01,2013-08-20 05:26:00,
2013-08-20 00:31:00,73.0,67.5,29.74,SSW,203,7.0,8.0,83,0.00,,,0.00,VWS V14.01,2013-08-20 05:31:00,
2013-08-20 00:36:00,73.0,67.5,29.75,SSW,196,5.0,8.0,83,0.00,,,0.00,VWS V14.01,2013-08-20 05:36:00,
2013-08-20 00:41:00,72.8,68.0,29.75,SSW,196,5.0,10.0,85,0.00,,,0.00,VWS V14.01,2013-08-20 05:41:00,
2013-08-20 00:46:00,72.7,68.3,29.75,South,191,5.0,10.0,86,0.00,,,0.00,VWS V14.01,2013-08-20 05:46:00,
2013-08-20 00:51:00,72.7,68.3,29.75,South,191,5.0,7.0,86,0.00,,,0.00,VWS V14.01,2013-08-20 05:51:00,
2013-08-20 00:56:00,72.5,68.8,29.75,SSW,192,6.0,8.0,88,0.00,,,0.00,VWS V14.01,2013-08-20 05:56:00,
2013-08-20 01:01:00,72.5,68.4,29.75,South,189,5.0,8.0,87,0.00,,,0.00,VWS V14.01,2013-08-20 06:01:00,
2013-08-20 01:06:00,72.5,68.4,29.75,South,188,6.0,10.0,87,0.00,,,0.00,VWS V14.01,2013-08-20 06:06:00,
2013-08-20 01:11:00,72.3,67.9,29.75,SSW,209,7.0,10.0,86,0.00,,,0.00,VWS V14.01,2013-08-20 06:11:00,
2013-08-20 01:16:00,72.1,69.0,29.75,SSW,203,5.0,10.0,90,0.00,,,0.00,VWS V14.01,2013-08-20 06:16:00,
2013-08-20 01:21:00,72.0,68.6,29.74,South,189,6.0,10.0,89,0.00,,,0.00,VWS V14.01,2013-08-20 06:21:00,
2013-08-20 01:26:00,71.8,68.4,29.74,South,189,5.0,10.0,89,0.00,,,0.00,VWS V14.01,2013-08-20 06:26:00,
2013-08-20 01:31:00,71.6,68.2,29.74,South,189,4.0,10.0,89,0.00,,,0.00,VWS V14.01,2013-08-20 06:31:00,
2013-08-20 01:36:00,71.6,68.2,29.74,SSE,167,3.0,7.0,89,0.00,,,0.00,VWS V14.01,2013-08-20 06:36:00,
2013-08-20 01:41:00,71.5,68.7,29.74,SSE,168,6.0,7.0,91,0.00,,,0.00,VWS V14.01,2013-08-20 06:41:00,
2013-08-20 01:46:00,71.5,68.4,29.74,SSW,208,6.0,8.0,90,0.00,,,0.00,VWS V14.01,2013-08-20 06:46:00,
2013-08-20 01:51:00,71.3,68.2,29.74,SSW,208,6.0,7.0,90,0.00,,,0.00,VWS V14.01,2013-08-20 06:51:00,
2013-08-20 01:56:00,70.9,68.5,29.74,SSW,208,6.0,7.0,92,0.00,,,0.00,VWS V14.01,2013-08-20 06:56:00,
2013-08-20 02:01:00,70.6,68.8,29.74,SSW,208,3.0,7.0,94,0.00,,,0.00,VWS V14.01,2013-08-20 07:01:00,
2013-08-20 02:06:00,70.3,69.1,29.74,SSW,208,4.0,6.0,96,0.00,,,0.00,VWS V14.01,2013-08-20 07:06:00,
2013-08-20 02:11:00,70.1,69.2,29.74,SSW,208,6.0,6.0,97,0.00,,,0.00,VWS V14.01,2013-08-20 07:11:00,
2013-08-20 02:16:00,69.9,69.3,29.74,SSW,208,6.0,7.0,98,0.00,,,0.00,VWS V14.01,2013-08-20 07:16:00,
2013-08-20 02:21:00,69.8,69.2,29.74,SSW,208,6.0,7.0,98,0.00,,,0.00,VWS V14.01,2013-08-20 07:21:00,
2013-08-20 02:26:00,69.8,69.8,29.74,SSW,208,6.0,7.0,100,0.00,,,0.00,VWS V14.01,2013-08-20 07:26:00,
2013-08-20 02:31:00,69.6,69.3,29.74,SSW,208,5.0,7.0,99,0.00,,,0.00,VWS V14.01,2013-08-20 07:31:00,
2013-08-20 02:36:00,69.6,69.0,29.73,SSW,209,5.0,7.0,98,0.00,,,0.00,VWS V14.01,2013-08-20 07:36:00,
2013-08-20 02:41:00,69.4,68.8,29.73,SSW,208,6.0,7.0,98,0.00,,,0.00,VWS V14.01,2013-08-20 07:41:00,
2013-08-20 02:46:00,69.4,69.1,29.73,SSW,208,5.0,7.0,99,0.00,,,0.00,VWS V14.01,2013-08-20 07:46:00,
2013-08-20 02:51:00,69.3,69.0,29.73,SSW,209,5.0,7.0,99,0.00,,,0.00,VWS V14.01,2013-08-20 07:51:00,
2013-08-20 02:56:00,69.3,68.7,29.73,SSW,209,6.0,7.0,98,0.00,,,0.00,VWS V14.01,2013-08-20 07:56:00,
2013-08-20 03:01:00,69.1,68.2,29.73,SSW,209,5.0,7.0,97,0.00,,,0.00,VWS V14.01,2013-08-20 08:01:00,
2013-08-20 03:06:00,69.1,69.1,29.73,SSW,209,5.0,7.0,100,0.00,,,0.00,VWS V14.01,2013-08-20 08:06:00,
2013-08-20 03:11:00,69.1,68.8,29.73,SSW,208,5.0,7.0,99,0.00,,,0.00,VWS V14.01,2013-08-20 08:11:00,
2013-08-20 03:16:00,69.1,68.8,29.73,SSW,209,5.0,7.0,99,0.00,,,0.00,VWS V14.01,2013-08-20 08:16:00,
2013-08-20 03:21:00,68.9,68.9,29.73,SSW,209,5.0,7.0,100,0.00,,,0.00,VWS V14.01,2013-08-20 08:21:00,
2013-08-20 03:26:00,68.9,68.9,29.73,SSW,209,5.0,7.0,100,0.00,,,0.00,VWS V14.01,2013-08-20 08:26:00,
2013-08-20 03:31:00,68.8,68.8,29.73,SSW,209,5.0,7.0,100,0.00,,,0.00,VWS V14.01,2013-08-20 08:31:00,
2013-08-20 03:36:00,68.6,68.6,29.73,SSW,209,4.0,7.0,100,0.00,,,0.00,VWS V14.01,2013-08-20 08:36:00,
2013-08-20 03:41:00,68.4,68.4,29.73,SSW,209,5.0,7.0,100,0.00,,,0.00,VWS V14.01,2013-08-20 08:41:00,
2013-08-20 03:46:00,68.3,68.3,29.73,SSW,209,4.0,7.0,100,0.00,,,0.00,VWS V14.01,2013-08-20 08:46:00,
2013-08-20 03:51:00,68.1,68.1,29.73,SSW,209,5.0,7.0,100,0.00,,,0.00,VWS V14.01,2013-08-20 08:51:00,
2013-08-20 03:56:00,68.1,68.1,29.73,SSW,209,3.0,7.0,100,0.00,,,0.00,VWS V14.01,2013-08-20 08:56:00,
2013-08-20 04:01:00,67.9,67.9,29.73,SSW,209,5.0,7.0,100,0.00,,,0.00,VWS V14.01,2013-08-20 09:01:00,
2013-08-20 04:06:00,67.9,67.9,29.73,SSW,209,5.0,7.0,100,0.00,,,0.00,VWS V14.01,2013-08-20 09:06:00,
2013-08-20 04:11:00,67.9,67.9,29.73,SSW,209,5.0,7.0,100,0.00,,,0.00,VWS V14.01,2013-08-20 09:11:00,
2013-08-20 04:16:00,67.9,67.9,29.73,SSW,209,5.0,7.0,100,0.00,,,0.00,VWS V14.01,2013-08-20 09:16:00,
2013-08-20 04:21:00,68.1,68.1,29.72,SSW,209,3.0,6.0,100,0.00,,,0.00,VWS V14.01,2013-08-20 09:21:00,
2013-08-20 04:26:00,67.9,67.9,29.72,SSW,209,4.0,6.0,100,0.00,,,0.00,VWS V14.01,2013-08-20 09:26:00,
2013-08-20 04:31:00,67.8,67.8,29.72,SSW,209,6.0,7.0,100,0.00,,,0.00,VWS V14.01,2013-08-20 09:31:00,
2013-08-20 04:36:00,67.8,67.8,29.72,SSW,210,6.0,7.0,100,0.00,,,0.00,VWS V14.01,2013-08-20 09:36:00,
2013-08-20 04:41:00,67.8,67.8,29.72,SSW,210,6.0,8.0,100,0.00,,,0.00,VWS V14.01,2013-08-20 09:41:00,
2013-08-20 04:46:00,67.8,67.8,29.72,SSW,210,5.0,8.0,100,0.00,,,0.00,VWS V14.01,2013-08-20 09:46:00,
2013-08-20 04:51:00,67.8,67.8,29.72,SSW,210,5.0,6.0,100,0.00,,,0.00,VWS V14.01,2013-08-20 09:51:00,
2013-08-20 04:56:00,67.8,67.8,29.72,SSW,210,5.0,7.0,100,0.00,,,0.00,VWS V14.01,2013-08-20 09:56:00,
2013-08-20 05:01:00,67.8,67.8,29.72,SSW,210,6.0,7.0,100,0.00,,,0.00,VWS V14.01,2013-08-20 10:01:00,
2013-08-20 05:06:00,67.8,67.8,29.71,SSW,210,4.0,6.0,100,0.00,,,0.00,VWS V14.01,2013-08-20 10:06:00,
2013-08-20 05:11:00,67.8,67.8,29.71,SSW,210,5.0,7.0,100,0.00,,,0.00,VWS V14.01,2013-08-20 10:11:00,
2013-08-20 05:16:00,67.8,67.8,29.71,SSW,210,6.0,7.0,100,0.00,,,0.00,VWS V14.01,2013-08-20 10:16:00,
2013-08-20 05:21:00,67.9,67.9,29.72,SSW,210,3.0,6.0,100,0.00,,,0.00,VWS V14.01,2013-08-20 10:21:00,
2013-08-20 05:26:00,67.9,67.9,29.72,SSW,210,3.0,7.0,100,0.00,,,0.00,VWS V14.01,2013-08-20 10:26:00,
2013-08-20 05:31:00,67.8,67.8,29.72,SSW,210,5.0,7.0,100,0.00,,,0.00,VWS V14.01,2013-08-20 10:31:00,
2013-08-20 05:36:00,67.8,67.8,29.71,SSW,210,5.0,6.0,100,0.00,,,0.00,VWS V14.01,2013-08-20 10:36:00,
2013-08-20 05:41:00,67.6,67.6,29.71,SSW,210,6.0,7.0,100,0.00,,,0.00,VWS V14.01,2013-08-20 10:41:00,
2013-08-20 05:46:00,67.6,67.6,29.71,SSW,210,6.0,8.0,100,0.00,,,0.00,VWS V14.01,2013-08-20 10:46:00,
2013-08-20 05:51:00,67.6,67.6,29.72,SSW,210,5.0,7.0,100,0.00,,,0.00,VWS V14.01,2013-08-20 10:51:00,
2013-08-20 05:56:00,67.4,67.4,29.72,SSW,210,6.0,7.0,100,0.00,,,0.00,VWS V14.01,2013-08-20 10:56:00,
2013-08-20 06:01:00,67.4,67.4,29.72,SSW,210,6.0,7.0,100,0.00,,,0.00,VWS V14.01,2013-08-20 11:01:00,
2013-08-20 06:06:00,67.3,67.3,29.72,SSW,210,5.0,7.0,100,0.00,,,0.00,VWS V14.01,2013-08-20 11:06:00,
2013-08-20 06:11:00,67.1,67.1,29.72,SSW,210,5.0,7.0,100,0.00,,,0.00,VWS V14.01,2013-08-20 11:11:00,
2013-08-20 06:16:00,67.1,67.1,29.72,SSW,210,5.0,7.0,100,0.00,,,0.00,VWS V14.01,2013-08-20 11:16:00,
2013-08-20 06:21:00,66.9,66.9,29.72,SSW,210,3.0,5.0,100,0.00,,,0.00,VWS V14.01,2013-08-20 11:21:00,
2013-08-20 06:26:00,66.8,66.8,29.72,SSW,210,5.0,6.0,100,0.00,,,0.00,VWS V14.01,2013-08-20 11:26:00,
2013-08-20 06:31:00,66.8,66.8,29.72,SSW,210,5.0,7.0,100,0.00,,,0.00,VWS V14.01,2013-08-20 11:31:00,
2013-08-20 06:36:00,66.6,66.6,29.73,SSW,210,5.0,5.0,100,0.00,,,0.00,VWS V14.01,2013-08-20 11:36:00,
2013-08-20 06:41:00,66.6,66.6,29.73,SSW,210,3.0,5.0,100,0.00,,,0.00,VWS V14.01,2013-08-20 11:41:00,
2013-08-20 06:46:00,66.4,66.4,29.73,SSW,210,3.0,5.0,100,0.00,,,0.00,VWS V14.01,2013-08-20 11:46:00,
2013-08-20 06:51:00,66.4,66.4,29.74,SSW,210,2.0,5.0,100,0.00,,,0.00,VWS V14.01,2013-08-20 11:51:00,
2013-08-20 06:56:00,66.4,66.4,29.74,SSW,210,4.0,5.0,100,0.00,,,0.00,VWS V14.01,2013-08-20 11:56:00,
2013-08-20 07:01:00,66.3,66.3,29.74,SSW,210,4.0,5.0,100,0.00,,,0.00,VWS V14.01,2013-08-20 12:01:00,
2013-08-20 07:06:00,66.1,66.1,29.74,SSW,210,4.0,6.0,100,0.00,,,0.00,VWS V14.01,2013-08-20 12:06:00,
2013-08-20 07:11:00,66.0,66.0,29.74,SSW,210,5.0,6.0,100,0.00,,,0.00,VWS V14.01,2013-08-20 12:11:00,
2013-08-20 07:16:00,65.6,65.6,29.74,SSW,210,3.0,6.0,100,0.00,,,0.00,VWS V14.01,2013-08-20 12:16:00,
2013-08-20 07:21:00,65.3,65.3,29.75,SSW,210,3.0,5.0,100,0.00,,,0.00,VWS V14.01,2013-08-20 12:21:00,
2013-08-20 07:26:00,65.3,65.3,29.75,SSW,210,3.0,5.0,100,0.00,,,0.00,VWS V14.01,2013-08-20 12:26:00,
2013-08-20 07:31:00,65.2,65.2,29.75,SSW,210,2.0,5.0,100,0.00,,,0.00,VWS V14.01,2013-08-20 12:31:00,
2013-08-20 07:36:00,65.2,65.2,29.75,SSW,210,5.0,5.0,100,0.00,,,0.00,VWS V14.01,2013-08-20 12:36:00,
2013-08-20 07:41:00,65.2,65.2,29.75,SSW,210,5.0,6.0,100,0.00,,,0.00,VWS V14.01,2013-08-20 12:41:00,
2013-08-20 07:46:00,65.3,65.3,29.75,SSW,210,3.0,6.0,100,0.00,,,0.00,VWS V14.01,2013-08-20 12:46:00,
2013-08-20 07:51:00,65.5,65.5,29.75,SSW,210,5.0,7.0,100,0.00,,,0.00,VWS V14.01,2013-08-20 12:51:00,
2013-08-20 07:56:00,65.8,65.8,29.75,SSW,210,5.0,7.0,100,0.00,,,0.00,VWS V14.01,2013-08-20 12:56:00,
2013-08-20 08:01:00,66.1,66.1,29.75,SSW,209,5.0,7.0,100,0.00,,,0.00,VWS V14.01,2013-08-20 13:01:00,
2013-08-20 08:06:00,66.4,66.4,29.75,SSW,192,7.0,7.0,100,0.00,,,0.00,VWS V14.01,2013-08-20 13:06:00,
2013-08-20 08:11:00,66.9,66.9,29.75,SSW,192,7.0,10.0,100,0.00,,,0.00,VWS V14.01,2013-08-20 13:11:00,
2013-08-20 08:16:00,67.4,67.4,29.75,SSW,202,5.0,10.0,100,0.00,,,0.00,VWS V14.01,2013-08-20 13:16:00,
2013-08-20 08:21:00,67.9,67.9,29.76,SSW,202,10.0,11.0,100,0.00,,,0.00,VWS V14.01,2013-08-20 13:21:00,
2013-08-20 08:26:00,68.3,68.3,29.76,SSW,195,7.0,11.0,100,0.00,,,0.00,VWS V14.01,2013-08-20 13:26:00,
2013-08-20 08:31:00,68.6,68.6,29.76,SSW,195,6.0,11.0,100,0.00,,,0.00,VWS V14.01,2013-08-20 13:31:00,
2013-08-20 08:36:00,68.9,68.9,29.76,SSW,205,9.0,10.0,100,0.00,,,0.00,VWS V14.01,2013-08-20 13:36:00,
2013-08-20 08:41:00,69.1,69.1,29.76,SSW,198,7.0,12.0,100,0.00,,,0.00,VWS V14.01,2013-08-20 13:41:00,
2013-08-20 08:46:00,69.4,69.4,29.76,SSW,206,5.0,12.0,100,0.00,,,0.00,VWS V14.01,2013-08-20 13:46:00,
2013-08-20 08:51:00,69.8,69.8,29.76,SSW,205,7.0,10.0,100,0.00,,,0.00,VWS V14.01,2013-08-20 13:51:00,
2013-08-20 08:56:00,70.1,70.1,29.76,SW,219,8.0,11.0,100,0.00,,,0.00,VWS V14.01,2013-08-20 13:56:00,
2013-08-20 09:01:00,70.4,69.8,29.76,SW,216,7.0,11.0,98,0.00,,,0.00,VWS V14.01,2013-08-20 14:01:00,
2013-08-20 09:06:00,70.6,70.0,29.76,SW,217,10.0,11.0,98,0.00,,,0.00,VWS V14.01,2013-08-20 14:06:00,
2013-08-20 09:11:00,70.8,70.2,29.76,SW,216,10.0,11.0,98,0.00,,,0.00,VWS V14.01,2013-08-20 14:11:00,
2013-08-20 09:16:00,70.8,69.6,29.76,SSW,209,10.0,13.0,96,0.00,,,0.00,VWS V14.01,2013-08-20 14:16:00,
2013-08-20 09:21:00,71.1,69.6,29.76,SW,217,8.0,12.0,95,0.00,,,0.00,VWS V14.01,2013-08-20 14:21:00,
2013-08-20 09:26:00,71.3,69.8,29.76,SSW,193,8.0,12.0,95,0.00,,,0.00,VWS V14.01,2013-08-20 14:26:00,
2013-08-20 09:31:00,71.6,69.8,29.76,South,188,7.0,12.0,94,0.00,,,0.00,VWS V14.01,2013-08-20 14:31:00,
2013-08-20 09:36:00,71.8,69.3,29.76,SW,227,11.0,13.0,92,0.00,,,0.00,VWS V14.01,2013-08-20 14:36:00,
2013-08-20 09:41:00,72.1,70.0,29.76,SSW,199,6.0,13.0,93,0.00,,,0.00,VWS V14.01,2013-08-20 14:41:00,
2013-08-20 09:46:00,72.5,69.7,29.76,South,184,10.0,13.0,91,0.00,,,0.00,VWS V14.01,2013-08-20 14:46:00,
2013-08-20 09:51:00,72.7,69.6,29.76,SSW,202,7.0,9.0,90,0.00,,,0.00,VWS V14.01,2013-08-20 14:51:00,
2013-08-20 09:56:00,73.0,68.6,29.76,SSW,199,6.0,12.0,86,0.00,,,0.00,VWS V14.01,2013-08-20 14:56:00,
2013-08-20 10:01:00,73.3,69.2,29.76,SSW,213,7.0,12.0,87,0.00,,,0.00,VWS V14.01,2013-08-20 15:01:00,
2013-08-20 10:06:00,73.9,69.1,29.76,SW,232,10.0,12.0,85,0.00,,,0.00,VWS V14.01,2013-08-20 15:06:00,
2013-08-20 10:11:00,74.2,68.0,29.76,SW,227,12.0,17.0,81,0.00,,,0.00,VWS V14.01,2013-08-20 15:11:00,
2013-08-20 10:16:00,74.6,68.0,29.76,SSW,205,9.0,17.0,80,0.00,,,0.00,VWS V14.01,2013-08-20 15:16:00,
2013-08-20 10:21:00,74.9,68.7,29.76,SW,236,12.0,12.0,81,0.00,,,0.00,VWS V14.01,2013-08-20 15:21:00,
2013-08-20 10:26:00,75.1,69.2,29.76,SSW,196,10.0,14.0,82,0.00,,,0.00,VWS V14.01,2013-08-20 15:26:00,
2013-08-20 10:31:00,75.4,68.4,29.76,SSW,213,12.0,14.0,79,0.00,,,0.00,VWS V14.01,2013-08-20 15:31:00,
2013-08-20 10:36:00,75.4,67.7,29.76,SW,226,14.0,15.0,77,0.00,,,0.00,VWS V14.01,2013-08-20 15:36:00,
2013-08-20 10:41:00,75.8,68.5,29.76,SSW,206,10.0,15.0,78,0.00,,,0.00,VWS V14.01,2013-08-20 15:41:00,
2013-08-20 10:46:00,76.3,68.6,29.76,South,191,5.0,15.0,77,0.00,,,0.00,VWS V14.01,2013-08-20 15:46:00,
2013-08-20 10:51:00,76.7,67.8,29.76,SW,226,9.0,12.0,74,0.00,,,0.00,VWS V14.01,2013-08-20 15:51:00,
2013-08-20 10:56:00,76.7,67.8,29.76,SSW,212,8.0,16.0,74,0.00,,,0.00,VWS V14.01,2013-08-20 15:56:00,
2013-08-20 11:01:00,77.2,69.1,29.76,WSW,244,9.0,16.0,76,0.00,,,0.00,VWS V14.01,2013-08-20 16:01:00,
2013-08-20 11:06:00,77.6,67.9,29.76,SSW,193,8.0,11.0,72,0.00,,,0.00,VWS V14.01,2013-08-20 16:06:00,
2013-08-20 11:11:00,77.7,67.1,29.76,SSW,195,6.0,13.0,70,0.00,,,0.00,VWS V14.01,2013-08-20 16:11:00,
2013-08-20 11:16:00,78.1,67.5,29.76,SSW,200,12.0,13.0,70,0.00,,,0.00,VWS V14.01,2013-08-20 16:16:00,
2013-08-20 11:21:00,78.6,66.7,29.75,SSW,195,14.0,14.0,67,0.00,,,0.00,VWS V14.01,2013-08-20 16:21:00,
2013-08-20 11:26:00,79.2,66.9,29.75,SSW,195,12.0,14.0,66,0.00,,,0.00,VWS V14.01,2013-08-20 16:26:00,
2013-08-20 11:31:00,79.8,66.6,29.75,SSW,200,12.0,14.0,64,0.00,,,0.00,VWS V14.01,2013-08-20 16:31:00,
2013-08-20 11:36:00,80.1,65.9,29.75,SW,230,11.0,14.0,62,0.00,,,0.00,VWS V14.01,2013-08-20 16:36:00,
2013-08-20 11:41:00,80.7,67.4,29.75,SSW,206,8.0,14.0,64,0.00,,,0.00,VWS V14.01,2013-08-20 16:41:00,
2013-08-20 11:46:00,81.2,66.0,29.75,SW,220,12.0,14.0,60,0.00,,,0.00,VWS V14.01,2013-08-20 16:46:00,
2013-08-20 11:51:00,81.4,67.6,29.75,SW,220,5.0,12.0,63,0.00,,,0.00,VWS V14.01,2013-08-20 16:51:00,
2013-08-20 11:56:00,81.6,66.9,29.75,SSE,167,3.0,12.0,61,0.00,,,0.00,VWS V14.01,2013-08-20 16:56:00,
2013-08-20 12:01:00,81.8,66.1,29.75,South,178,7.0,12.0,59,0.00,,,0.00,VWS V14.01,2013-08-20 17:01:00,
2013-08-20 12:06:00,82.0,66.8,29.74,South,186,8.0,12.0,60,0.00,,,0.00,VWS V14.01,2013-08-20 17:06:00,
2013-08-20 12:11:00,82.2,66.0,29.74,SSW,196,8.0,14.0,58,0.00,,,0.00,VWS V14.01,2013-08-20 17:11:00,
2013-08-20 12:16:00,82.6,66.3,29.74,SSW,198,7.0,14.0,58,0.00,,,0.00,VWS V14.01,2013-08-20 17:16:00,
2013-08-20 12:21:00,83.0,65.7,29.74,SW,222,11.0,14.0,56,0.00,,,0.00,VWS V14.01,2013-08-20 17:21:00,
2013-08-20 12:26:00,83.6,66.3,29.74,South,191,7.0,14.0,56,0.00,,,0.00,VWS V14.01,2013-08-20 17:26:00,
2013-08-20 12:31:00,84.0,66.1,29.74,South,186,10.0,14.0,55,0.00,,,0.00,VWS V14.01,2013-08-20 17:31:00,
2013-08-20 12:36:00,84.3,67.4,29.73,SSW,193,8.0,12.0,57,0.00,,,0.00,VWS V14.01,2013-08-20 17:36:00,
2013-08-20 12:41:00,84.7,65.7,29.73,South,172,6.0,12.0,53,0.00,,,0.00,VWS V14.01,2013-08-20 17:41:00,
2013-08-20 12:46:00,85.3,66.2,29.73,SSW,195,7.0,14.0,53,0.00,,,0.00,VWS V14.01,2013-08-20 17:46:00,
2013-08-20 12:51:00,85.7,63.8,29.73,South,185,10.0,12.0,48,0.00,,,0.00,VWS V14.01,2013-08-20 17:51:00,
2013-08-20 12:56:00,85.9,64.0,29.73,South,188,10.0,14.0,48,0.00,,,0.00,VWS V14.01,2013-08-20 17:56:00,
2013-08-20 13:01:00,85.9,65.7,29.73,SW,215,10.0,14.0,51,0.00,,,0.00,VWS V14.01,2013-08-20 18:01:00,
2013-08-20 13:06:00,86.3,63.7,29.72,SSW,195,9.0,14.0,47,0.00,,,0.00,VWS V14.01,2013-08-20 18:06:00,
2013-08-20 13:11:00,86.7,65.3,29.72,SSW,206,10.0,14.0,49,0.00,,,0.00,VWS V14.01,2013-08-20 18:11:00,
2013-08-20 13:16:00,87.4,65.9,29.72,SSW,198,7.0,14.0,49,0.00,,,0.00,VWS V14.01,2013-08-20 18:16:00,
2013-08-20 13:21:00,88.0,64.0,29.72,SSW,193,7.0,12.0,45,0.00,,,0.00,VWS V14.01,2013-08-20 18:21:00,
2013-08-20 13:26:00,88.4,65.0,29.72,South,189,6.0,12.0,46,0.00,,,0.00,VWS V14.01,2013-08-20 18:26:00,
2013-08-20 13:31:00,88.6,65.2,29.72,South,188,7.0,17.0,46,0.00,,,0.00,VWS V14.01,2013-08-20 18:31:00,
2013-08-20 13:36:00,89.0,64.3,29.71,South,181,7.0,12.0,44,0.00,,,0.00,VWS V14.01,2013-08-20 18:36:00,
2013-08-20 13:41:00,89.3,65.2,29.71,SSW,192,6.0,12.0,45,0.00,,,0.00,VWS V14.01,2013-08-20 18:41:00,
2013-08-20 13:46:00,89.7,63.6,29.71,South,189,16.0,16.0,42,0.00,,,0.00,VWS V14.01,2013-08-20 18:46:00,
2013-08-20 13:51:00,89.7,64.2,29.71,South,189,19.0,19.0,43,0.00,,,0.00,VWS V14.01,2013-08-20 18:51:00,
2013-08-20 13:56:00,89.7,62.9,29.71,South,175,7.0,19.0,41,0.00,,,0.00,VWS V14.01,2013-08-20 18:56:00,
2013-08-20 14:01:00,89.9,63.8,29.71,South,191,14.0,19.0,42,0.00,,,0.00,VWS V14.01,2013-08-20 19:01:00,
2013-08-20 14:06:00,90.1,63.2,29.71,SSW,200,12.0,19.0,41,0.00,,,0.00,VWS V14.01,2013-08-20 19:06:00,
2013-08-20 14:11:00,90.1,61.1,29.71,WSW,239,16.0,19.0,38,0.00,,,0.00,VWS V14.01,2013-08-20 19:11:00,
2013-08-20 14:16:00,90.3,62.0,29.71,SW,232,15.0,19.0,39,0.00,,,0.00,VWS V14.01,2013-08-20 19:16:00,
2013-08-20 14:21:00,90.5,62.9,29.71,South,179,7.0,17.0,40,0.00,,,0.00,VWS V14.01,2013-08-20 19:21:00,
2013-08-20 14:26:00,90.7,62.4,29.71,SSW,205,13.0,17.0,39,0.00,,,0.00,VWS V14.01,2013-08-20 19:26:00,
2013-08-20 14:31:00,91.0,61.1,29.71,SSW,203,13.0,17.0,37,0.00,,,0.00,VWS V14.01,2013-08-20 19:31:00,
2013-08-20 14:36:00,91.0,61.9,29.71,SSW,210,12.0,16.0,38,0.00,,,0.00,VWS V14.01,2013-08-20 19:36:00,
2013-08-20 14:41:00,91.2,61.3,29.71,South,176,12.0,17.0,37,0.00,,,0.00,VWS V14.01,2013-08-20 19:41:00,
2013-08-20 14:46:00,91.2,61.3,29.71,South,179,8.0,17.0,37,0.00,,,0.00,VWS V14.01,2013-08-20 19:46:00,
2013-08-20 14:51:00,91.2,62.1,29.70,South,189,14.0,17.0,38,0.00,,,0.00,VWS V14.01,2013-08-20 19:51:00,
2013-08-20 14:56:00,91.4,59.1,29.70,SSW,206,12.0,17.0,34,0.00,,,0.00,VWS V14.01,2013-08-20 19:56:00,
2013-08-20 15:01:00,91.6,61.7,29.70,South,191,8.0,17.0,37,0.00,,,0.00,VWS V14.01,2013-08-20 20:01:00,
2013-08-20 15:06:00,91.8,60.3,29.70,SSW,192,7.0,14.0,35,0.00,,,0.00,VWS V14.01,2013-08-20 20:06:00,
2013-08-20 15:11:00,92.1,62.1,29.70,SSW,202,7.0,14.0,37,0.00,,,0.00,VWS V14.01,2013-08-20 20:11:00,
2013-08-20 15:16:00,92.3,60.7,29.70,SSW,193,12.0,18.0,35,0.00,,,0.00,VWS V14.01,2013-08-20 20:16:00,
2013-08-20 15:21:00,92.3,60.7,29.70,SSW,192,6.0,14.0,35,0.00,,,0.00,VWS V14.01,2013-08-20 20:21:00,
2013-08-20 15:26:00,92.3,59.9,29.70,South,191,10.0,17.0,34,0.00,,,0.00,VWS V14.01,2013-08-20 20:26:00,
2013-08-20 15:31:00,92.7,60.2,29.70,SSW,200,7.0,17.0,34,0.00,,,0.00,VWS V14.01,2013-08-20 20:31:00,
2013-08-20 15:36:00,92.9,59.6,29.69,SSW,205,7.0,16.0,33,0.00,,,0.00,VWS V14.01,2013-08-20 20:36:00,
2013-08-20 15:41:00,92.7,60.2,29.69,South,191,12.0,18.0,34,0.00,,,0.00,VWS V14.01,2013-08-20 20:41:00,
2013-08-20 15:46:00,92.9,58.7,29.69,SSW,206,9.0,18.0,32,0.00,,,0.00,VWS V14.01,2013-08-20 20:46:00,
2013-08-20 15:51:00,92.9,60.4,29.69,SSW,198,9.0,16.0,34,0.00,,,0.00,VWS V14.01,2013-08-20 20:51:00,
2013-08-20 15:56:00,93.4,60.9,29.69,SSW,198,11.0,16.0,34,0.00,,,0.00,VWS V14.01,2013-08-20 20:56:00,
2013-08-20 16:01:00,93.4,60.0,29.69,SSW,209,12.0,17.0,33,0.00,,,0.00,VWS V14.01,2013-08-20 21:01:00,
2013-08-20 16:06:00,93.4,59.2,29.69,South,188,10.0,13.0,32,0.00,,,0.00,VWS V14.01,2013-08-20 21:06:00,
2013-08-20 16:11:00,93.4,59.2,29.69,SSW,213,7.0,14.0,32,0.00,,,0.00,VWS V14.01,2013-08-20 21:11:00,
2013-08-20 16:16:00,93.4,60.0,29.69,South,186,13.0,14.0,33,0.00,,,0.00,VWS V14.01,2013-08-20 21:16:00,
2013-08-20 16:21:00,93.4,57.4,29.69,South,191,7.0,19.0,30,0.00,,,0.00,VWS V14.01,2013-08-20 21:21:00,
2013-08-20 16:26:00,93.4,60.0,29.69,SSW,200,11.0,19.0,33,0.00,,,0.00,VWS V14.01,2013-08-20 21:26:00,
2013-08-20 16:31:00,93.6,58.4,29.69,SSW,192,15.0,19.0,31,0.00,,,0.00,VWS V14.01,2013-08-20 21:31:00,
2013-08-20 16:36:00,93.6,59.3,29.68,SW,216,13.0,18.0,32,0.00,,,0.00,VWS V14.01,2013-08-20 21:36:00,
2013-08-20 16:41:00,93.4,58.3,29.68,South,189,14.0,18.0,31,0.00,,,0.00,VWS V14.01,2013-08-20 21:41:00,
2013-08-20 16:46:00,93.2,58.1,29.68,SSW,198,7.0,18.0,31,0.00,,,0.00,VWS V14.01,2013-08-20 21:46:00,
2013-08-20 16:51:00,93.4,57.4,29.68,SSW,193,12.0,15.0,30,0.00,,,0.00,VWS V14.01,2013-08-20 21:51:00,
2013-08-20 16:56:00,93.4,57.4,29.68,SSW,200,13.0,17.0,30,0.00,,,0.00,VWS V14.01,2013-08-20 21:56:00,
2013-08-20 17:01:00,93.4,55.5,29.68,SSW,202,13.0,18.0,28,0.00,,,0.00,VWS V14.01,2013-08-20 22:01:00,
2013-08-20 17:06:00,93.4,57.4,29.68,SSW,203,14.0,18.0,30,0.00,,,0.00,VWS V14.01,2013-08-20 22:06:00,
2013-08-20 17:11:00,93.4,58.3,29.68,SW,227,14.0,18.0,31,0.00,,,0.00,VWS V14.01,2013-08-20 22:11:00,
2013-08-20 17:16:00,93.4,59.2,29.68,South,191,3.0,18.0,32,0.00,,,0.00,VWS V14.01,2013-08-20 22:16:00,
2013-08-20 17:21:00,93.4,58.3,29.68,SSW,199,7.0,14.0,31,0.00,,,0.00,VWS V14.01,2013-08-20 22:21:00,
2013-08-20 17:26:00,93.4,59.2,29.68,South,191,10.0,14.0,32,0.00,,,0.00,VWS V14.01,2013-08-20 22:26:00,
2013-08-20 17:31:00,93.2,57.2,29.68,SSW,192,12.0,14.0,30,0.00,,,0.00,VWS V14.01,2013-08-20 22:31:00,
2013-08-20 17:36:00,93.2,56.2,29.68,SSE,165,7.0,14.0,29,0.00,,,0.00,VWS V14.01,2013-08-20 22:36:00,
2013-08-20 17:41:00,93.2,57.2,29.68,South,189,6.0,14.0,30,0.00,,,0.00,VWS V14.01,2013-08-20 22:41:00,
2013-08-20 17:46:00,92.9,56.9,29.68,SW,226,10.0,14.0,30,0.00,,,0.00,VWS V14.01,2013-08-20 22:46:00,
2013-08-20 17:51:00,92.9,58.7,29.68,SSW,192,11.0,14.0,32,0.00,,,0.00,VWS V14.01,2013-08-20 22:51:00,
2013-08-20 17:56:00,92.9,59.6,29.68,South,184,7.0,14.0,33,0.00,,,0.00,VWS V14.01,2013-08-20 22:56:00,
2013-08-20 18:01:00,92.7,58.5,29.68,SSW,200,13.0,14.0,32,0.00,,,0.00,VWS V14.01,2013-08-20 23:01:00,
2013-08-20 18:06:00,92.5,59.2,29.68,SSW,198,10.0,13.0,33,0.00,,,0.00,VWS V14.01,2013-08-20 23:06:00,
2013-08-20 18:11:00,92.3,58.2,29.68,SSW,198,10.0,13.0,32,0.00,,,0.00,VWS V14.01,2013-08-20 23:11:00,
2013-08-20 18:16:00,92.1,57.2,29.68,South,179,10.0,14.0,31,0.00,,,0.00,VWS V14.01,2013-08-20 23:16:00,
2013-08-20 18:21:00,91.8,58.6,29.68,SSW,199,6.0,13.0,33,0.00,,,0.00,VWS V14.01,2013-08-20 23:21:00,
2013-08-20 18:26:00,91.6,59.3,29.68,SSW,195,6.0,13.0,34,0.00,,,0.00,VWS V14.01,2013-08-20 23:26:00,
2013-08-20 18:31:00,91.4,58.3,29.68,SSW,196,11.0,13.0,33,0.00,,,0.00,VWS V14.01,2013-08-20 23:31:00,
2013-08-20 18:36:00,91.2,58.1,29.69,South,189,10.0,11.0,33,0.00,,,0.00,VWS V14.01,2013-08-20 23:36:00,
2013-08-20 18:41:00,91.0,60.4,29.69,South,188,7.0,13.0,36,0.00,,,0.00,VWS V14.01,2013-08-20 23:41:00,
2013-08-20 18:46:00,90.7,59.3,29.69,SSW,202,7.0,14.0,35,0.00,,,0.00,VWS V14.01,2013-08-20 23:46:00,
2013-08-20 18:51:00,90.7,58.5,29.68,SSW,193,8.0,14.0,34,0.00,,,0.00,VWS V14.01,2013-08-20 23:51:00,
2013-08-20 18:56:00,90.7,59.3,29.68,SSW,195,10.0,14.0,35,0.00,,,0.00,VWS V14.01,2013-08-20 23:56:00,
2013-08-20 19:01:00,90.7,59.3,29.68,SSW,195,7.0,14.0,35,0.00,,,0.00,VWS V14.01,2013-08-21 00:01:00,
2013-08-20 19:06:00,90.5,60.7,29.69,South,179,7.0,14.0,37,0.00,,,0.00,VWS V14.01,2013-08-21 00:06:00,
2013-08-20 19:11:00,90.3,59.8,29.69,SSW,212,11.0,16.0,36,0.00,,,0.00,VWS V14.01,2013-08-21 00:11:00,
2013-08-20 19:16:00,90.1,60.3,29.69,SSW,193,7.0,16.0,37,0.00,,,0.00,VWS V14.01,2013-08-21 00:16:00,
2013-08-20 19:21:00,89.7,60.0,29.68,SSW,196,9.0,12.0,37,0.00,,,0.00,VWS V14.01,2013-08-21 00:21:00,
2013-08-20 19:26:00,89.5,58.3,29.68,SSW,208,5.0,12.0,35,0.00,,,0.00,VWS V14.01,2013-08-21 00:26:00,
2013-08-20 19:31:00,89.3,60.4,29.68,SSW,198,10.0,15.0,38,0.00,,,0.00,VWS V14.01,2013-08-21 00:31:00,
2013-08-20 19:36:00,89.0,58.6,29.69,South,191,7.0,12.0,36,0.00,,,0.00,VWS V14.01,2013-08-21 00:36:00,
2013-08-20 19:41:00,88.8,60.7,29.69,SSW,196,12.0,12.0,39,0.00,,,0.00,VWS V14.01,2013-08-21 00:41:00,
2013-08-20 19:46:00,88.4,60.3,29.69,SSW,198,8.0,13.0,39,0.00,,,0.00,VWS V14.01,2013-08-21 00:46:00,
2013-08-20 19:51:00,88.2,60.1,29.69,SSW,198,9.0,14.0,39,0.00,,,0.00,VWS V14.01,2013-08-21 00:51:00,
2013-08-20 19:56:00,88.0,60.7,29.69,SSW,198,12.0,16.0,40,0.00,,,0.00,VWS V14.01,2013-08-21 00:56:00,
2013-08-20 20:01:00,87.8,59.8,29.69,SSW,205,10.0,16.0,39,0.00,,,0.00,VWS V14.01,2013-08-21 01:01:00,
2013-08-20 20:06:00,87.4,60.8,29.69,SSW,193,10.0,14.0,41,0.00,,,0.00,VWS V14.01,2013-08-21 01:06:00,
2013-08-20 20:11:00,87.2,60.7,29.69,SW,216,12.0,14.0,41,0.00,,,0.00,VWS V14.01,2013-08-21 01:11:00,
2013-08-20 20:16:00,86.7,60.9,29.69,South,186,13.0,14.0,42,0.00,,,0.00,VWS V14.01,2013-08-21 01:16:00,
2013-08-20 20:19:00,86.7,61.5,29.68,SSW,195,10.0,12.0,43,0.00,,,0.00,VWS V14.01,2013-08-21 01:19:00,
2013-08-20 20:24:00,86.3,60.5,29.68,SSW,213,11.0,16.0,42,0.00,,,0.00,VWS V14.01,2013-08-21 01:24:00,
2013-08-20 20:29:00,86.1,61.7,29.68,SSW,210,7.0,16.0,44,0.00,,,0.00,VWS V14.01,2013-08-21 01:29:00,
2013-08-20 20:34:00,85.7,60.7,29.69,SSW,192,9.0,13.0,43,0.00,,,0.00,VWS V14.01,2013-08-21 01:34:00,
2013-08-20 20:39:00,85.5,60.5,29.69,SW,215,14.0,14.0,43,0.00,,,0.00,VWS V14.01,2013-08-21 01:39:00,
2013-08-20 20:44:00,85.5,60.5,29.69,SSW,200,12.0,16.0,43,0.00,,,0.00,VWS V14.01,2013-08-21 01:44:00,
2013-08-20 20:49:00,85.3,60.9,29.69,SSW,205,12.0,14.0,44,0.00,,,0.00,VWS V14.01,2013-08-21 01:49:00,
2013-08-20 20:54:00,84.9,59.9,29.69,SSW,199,13.0,16.0,43,0.00,,,0.00,VWS V14.01,2013-08-21 01:54:00,
2013-08-20 20:59:00,84.9,60.6,29.69,SSW,196,11.0,16.0,44,0.00,,,0.00,VWS V14.01,2013-08-21 01:59:00,
2013-08-20 21:04:00,84.5,60.8,29.70,SSW,193,10.0,12.0,45,0.00,,,0.00,VWS V14.01,2013-08-21 02:04:00,
2013-08-20 21:09:00,84.3,60.7,29.70,South,191,8.0,12.0,45,0.00,,,0.00,VWS V14.01,2013-08-21 02:09:00,
2013-08-20 21:14:00,84.0,61.6,29.70,SSW,200,6.0,12.0,47,0.00,,,0.00,VWS V14.01,2013-08-21 02:14:00,
2013-08-20 21:19:00,83.6,61.8,29.70,SSW,203,9.0,10.0,48,0.00,,,0.00,VWS V14.01,2013-08-21 02:19:00,
2013-08-20 21:24:00,83.2,61.5,29.70,SSW,193,9.0,12.0,48,0.00,,,0.00,VWS V14.01,2013-08-21 02:24:00,
2013-08-20 21:29:00,82.8,63.4,29.70,SSW,202,10.0,12.0,52,0.00,,,0.00,VWS V14.01,2013-08-21 02:29:00,
2013-08-20 21:34:00,82.6,62.7,29.72,SSW,198,7.0,13.0,51,0.00,,,0.00,VWS V14.01,2013-08-21 02:34:00,
2013-08-20 21:39:00,82.6,62.7,29.72,SW,230,14.0,15.0,51,0.00,,,0.00,VWS V14.01,2013-08-21 02:39:00,
2013-08-20 21:44:00,82.4,63.0,29.72,SSW,203,10.0,15.0,52,0.00,,,0.00,VWS V14.01,2013-08-21 02:44:00,
2013-08-20 21:49:00,82.2,63.4,29.72,South,179,8.0,13.0,53,0.00,,,0.00,VWS V14.01,2013-08-21 02:49:00,
2013-08-20 21:54:00,82.0,62.7,29.72,SSW,198,12.0,13.0,52,0.00,,,0.00,VWS V14.01,2013-08-21 02:54:00,
2013-08-20 21:59:00,82.0,63.2,29.72,SSW,205,12.0,14.0,53,0.00,,,0.00,VWS V14.01,2013-08-21 02:59:00,
2013-08-20 22:04:00,81.8,63.0,29.73,SSW,205,13.0,13.0,53,0.00,,,0.00,VWS V14.01,2013-08-21 03:04:00,
2013-08-20 22:09:00,81.8,63.0,29.73,SSW,199,10.0,17.0,53,0.00,,,0.00,VWS V14.01,2013-08-21 03:09:00,
2013-08-20 22:14:00,81.8,62.5,29.73,SSW,202,11.0,17.0,52,0.00,,,0.00,VWS V14.01,2013-08-21 03:14:00,
2013-08-20 22:19:00,81.6,62.8,29.73,SSW,203,13.0,14.0,53,0.00,,,0.00,VWS V14.01,2013-08-21 03:19:00,
2013-08-20 22:24:00,81.4,62.6,29.73,South,174,7.0,14.0,53,0.00,,,0.00,VWS V14.01,2013-08-21 03:24:00,
2013-08-20 22:29:00,81.1,62.9,29.73,SSW,205,10.0,14.0,54,0.00,,,0.00,VWS V14.01,2013-08-21 03:29:00,
2013-08-20 22:34:00,80.9,62.7,29.73,SSW,199,10.0,14.0,54,0.00,,,0.00,VWS V14.01,2013-08-21 03:34:00,
2013-08-20 22:39:00,80.7,62.5,29.73,South,185,14.0,16.0,54,0.00,,,0.00,VWS V14.01,2013-08-21 03:39:00,
2013-08-20 22:44:00,80.5,63.4,29.73,SSW,196,10.0,16.0,56,0.00,,,0.00,VWS V14.01,2013-08-21 03:44:00,
2013-08-20 22:49:00,80.1,63.0,29.74,SSW,213,12.0,12.0,56,0.00,,,0.00,VWS V14.01,2013-08-21 03:49:00,
2013-08-20 22:54:00,79.9,63.3,29.74,South,191,10.0,12.0,57,0.00,,,0.00,VWS V14.01,2013-08-21 03:54:00,
2013-08-20 23:00:00,79.8,63.2,29.74,SSW,199,10.0,12.0,57,0.00,,,0.00,VWS V14.01,2013-08-21 04:00:00,
2013-08-20 23:01:00,79.8,63.7,29.74,SSW,200,11.0,12.0,58,0.00,,,0.00,VWS V14.01,2013-08-21 04:01:00,
2013-08-20 23:06:00,79.6,63.0,29.73,SSW,199,9.0,13.0,57,0.00,,,0.00,VWS V14.01,2013-08-21 04:06:00,
2013-08-20 23:11:00,79.6,63.5,29.73,South,191,8.0,13.0,58,0.00,,,0.00,VWS V14.01,2013-08-21 04:11:00,
2013-08-20 23:16:00,79.4,63.3,29.73,SSW,198,7.0,14.0,58,0.00,,,0.00,VWS V14.01,2013-08-21 04:16:00,
2013-08-20 23:21:00,79.2,63.7,29.72,SSW,198,8.0,14.0,59,0.00,,,0.00,VWS V14.01,2013-08-21 04:21:00,
2013-08-20 23:26:00,79.0,63.5,29.72,SSW,198,10.0,14.0,59,0.00,,,0.00,VWS V14.01,2013-08-21 04:26:00,
2013-08-20 23:31:00,79.0,63.0,29.72,SSW,195,7.0,14.0,58,0.00,,,0.00,VWS V14.01,2013-08-21 04:31:00,
2013-08-20 23:36:00,78.8,63.8,29.72,SSW,193,7.0,14.0,60,0.00,,,0.00,VWS V14.01,2013-08-21 04:36:00,
2013-08-20 23:41:00,78.8,64.2,29.72,SSW,200,8.0,14.0,61,0.00,,,0.00,VWS V14.01,2013-08-21 04:41:00,
2013-08-20 23:46:00,78.6,63.6,29.72,SSW,202,12.0,14.0,60,0.00,,,0.00,VWS V14.01,2013-08-21 04:46:00,
2013-08-20 23:51:00,78.5,64.0,29.72,SSW,195,6.0,13.0,61,0.00,,,0.00,VWS V14.01,2013-08-21 04:51:00,
2013-08-20 23:56:00,78.3,63.8,29.72,SSW,199,10.0,14.0,61,0.00,,,0.00,VWS V14.01,2013-08-21 04:56:00,